Retour au catalogue

ARIANE 42L+3 R/B

ActifGTO
NORAD 23687·ROCKET BODY·🇫🇷 France

Lancé Oct 19, 1995 depuis Guiana Space Centre

Loading…

TLE

VieillissantSource: Space-Track

Époque: Sep 14, 2026, 02:25 UTC

1 23687U 95055B   26257.10086031  .00000049  00000-0  54014-3 0  9991
2 23687   4.5106 225.1986 7236897  50.6664 353.7084  2.22344220250048

Suivez ARIANE 42L+3 R/B en temps réel avec AllMySat

Download on the App Store